ASTRA 1L

Last updated on Thu Oct 30 2025 00:02:47 GMT+0000 (Coordinated Universal Time)

1 31306U 07016A 25302.26083336 .00000132 00000+0 00000+0 0 9994 2 31306 0.7200 82.6651 0003562 141.9657 286.5461 1.00273793 42674
UTC large
Height (km)
Speed (km/s)
/
Latitude / Longitude
Inclination (degrees)
Orbital Period (minutes)
Azimuth
Elevation
Range (km)
Doppler Factor

Next 0 passes for location: London (51.5072 / 0.1276)

Sorry there are no passes over London.